SCP
0 0 0 0 0 0 0 0 0 0 0 0 0 0 0 0 1 0 0 0 0 0 0 0 0 0 0 0 0 0 0 0 0 0 0 0 0 0 0 0 0 0 0
0 0 0 0 0 0 0 0 0 0 0 0 0 0 0 1 1 0 0 0 0 0 0 0 0 0 0 0 0 0 0 0 0 0 0 0 0 0 0 0 0 0 0
0 0 0 0 0 0 0 0 0 0 0 0 1 1 1 0 0 0 0 0 0 0 0 0 0 0 0 0 0 0 0 0 0 0 0 0 0 0 0 0 0 0 0
0 0 0 0 0 0 0 0 0 0 0 0 1 1 0 0 0 0 0 0 0 0 0 0 0 0 0 0 0 0 0 0 0 0 0 0 0 0 0 0 0 0 0
0 0 0 0 0 0 0 0 0 0 0 0 0 0 0 0 0 0 0 0 0 0 0 0 0 0 0 0 0 0 0 0 0 0 0 0 0 0 0 0 0 0 0
0 0 0 0 0 0 0 1 0 0 0 0 0 0 0 0 0 0 0 0 0 0 0 0 0 0 0 0 0 0 0 0 0 0 0 0 0 0 0 0 0 0 0
0 1 1 1 0 0 1 0 0 0 0 0 0 0 0 0 0 0 0 0 0 0 0 0 0 0 0 0 0 0 0 0 0 0 0 0 0 0 0 0 0 0 0
0 1 1 1 1 0 0 0 0 0 0 0 0 0 0 0 0 0 0 0 0 0 0 0 0 0 0 0 0 0 0 0 0 0 0 0 0 0 0 0 0 0 0
0 0 1 1 1 0 0 0 0 0 0 0 0 0 0 0 0 0 0 0 0 0 0 0 0 0 0 0 0 0 0 0 0 0 0 0 0 0 0 0 0 0 0
0 0 1 1 1 0 0 0 0 0 0 0 0 0 0 0 0 0 0 0 0 0 0 0 0 0 0 0 0 0 0 0 0 0 0 0 0 0 0 0 0 0 0
0 0 1 1 0 0 0 0 0 0 0 0 0 0 0 0 0 0 0 0 0 0 0 0 0 0 0 0 0 0 0 0 0 0 0 0 0 0 0 0 0 0 0
1 0 1 0 0 0 0 0 0 0 0 0 0 0 0 0 0 0 0 0 0 0 0 0 0 0 0 0 0 0 0 0 0 0 0 0 0 0 0 0 0 0 0
1 0 0 0 0 0 0 0 0 0 0 0 0 0 0 0 0 0 0 0 0 0 0 0 0 0 0 0 0 0 0 0 0 0 0 0 0 0 0 0 0 0 0
1 0 0 0 0 0 0 0 0 0 0 0 0 0 0 0 0 0 0 0 0 0 0 0 0 0 0 0 0 0 0 0 0 0 0 0 0 0 0 0 0 0 0
1 0 0 0 0 0 0 0 0 0 0 0 0 0 0 0 0 0 0 0 0 0 0 0 0 0 0 0 0 0 0 0 0 0 0 0 0 0 0 0 0 0 0
0 0 0 0 0 0 0 0 0 0 0 0 0 0 0 0 0 0 0 0 0 0 0 0 0 0 0 0 0 0 0 0 0 0 0 0 0 0 0 0 0 0 0
0 0 0 0 0 0 0 0 0 0 0 0 0 0 0 0 0 0 0 0 0 0 0 0 0 0 0 0 0 0 0 0 0 0 0 0 0 0 0 0 0 0 0
0 0 0 0 0 0 0 0 0 0 0 0 0 0 0 0 0 0 0 0 0 0 0 0 0 0 0 0 0 0 0 0 0 0 0 0 0 0 0 0 0 0 0
0 0 0 0 0 0 0 0 0 0 0 0 0 0 0 0 0 0 0 0 0 0 0 0 0 0 0 0 0 0 0 0 0 0 0 0 0 0 0 0 0 0 0
0 0 0 0 0 0 0 0 0 0 0 0 0 0 0 0 0 0 0 0 0 0 0 0 0 0 0 0 0 0 0 0 0 0 0 0 0 0 0 0 -0 -0 0
0 0 0 0 0 0 0 0 0 0 0 0 0 0 0 0 0 0 0 0 0 0 0 0 0 0 0 0 0 0 0 0 0 0 0 0 0 0 0 0 -0 -0 -0
0 0 0 0 0 0 0 0 0 0 0 0 0 0 0 0 0 0 0 0 0 0 0 0 0 0 0 0 0 0 0 0 0 0 0 0 0 0 0 0 -0 0 -0
0 0 0 0 0 0 0 0 0 0 0 0 0 0 0 0 0 0 0 0 0 0 0 0 0 0 0 0 0 0 0 0 0 0 0 0 0 0 0 0 0 -0 -0
0 0 0 0 0 0 0 0 0 0 0 0 0 0 0 0 -0 0 0 0 0 0 0 0 0 0 0 0 0 0 0 0 0 0 0 0 0 0 0 0 0 -0 -0
0 0 0 0 0 0 0 0 0 0 -0 -0 0 0 0 0 -0 -0 0 0 0 0 0 0 0 0 0 0 0 0 0 0 0 0 0 0 0 0 0 0 0 -0 -0
0 0 0 0 0 0 0 0 0 -0 -0 -0 0 0 0 0 0 0 0 0 0 0 0 0 0 0 0 0 0 0 0 0 0 0 0 0 0 0 0 0 0 0 0
Wind_Speed_500mb
47 42 38 34 30 24 21 20 22 23 22 18 12 11 9 12 17 15 17 22 19 21 20 26 29 32 32 29 27 30 30 32 34 33 33 33 30 27 26 27 29 31 32
47 43 39 33 28 24 23 24 25 25 20 16 14 11 16 23 20 17 21 23 20 23 20 21 25 25 25 25 24 28 28 31 35 35 36 35 34 30 30 30 32 30 32
48 43 39 34 29 27 25 26 24 22 20 21 15 16 24 17 18 20 23 23 21 18 18 18 18 19 21 21 21 23 28 32 35 36 40 39 36 35 37 37 37 35 33
49 44 41 36 32 29 28 27 24 23 24 24 20 20 18 18 21 25 25 24 20 17 14 13 13 15 16 16 19 25 25 30 38 42 41 43 41 41 39 39 38 35 35
50 47 41 38 36 33 30 26 25 27 25 25 21 16 20 19 21 26 25 23 23 18 13 11 14 14 14 16 19 22 27 29 36 35 42 46 45 45 44 42 41 43 36
54 51 48 40 36 33 29 27 27 26 23 22 21 19 19 22 27 28 24 25 24 19 17 16 17 12 16 18 22 27 32 34 38 42 46 51 50 50 49 47 44 46 44
58 53 51 45 35 35 31 26 30 27 27 25 20 18 18 21 23 22 24 23 24 22 22 23 22 21 17 24 28 32 38 44 48 46 47 51 51 51 49 49 51 50 49
62 58 53 48 41 37 31 29 31 29 30 26 21 17 9 14 18 17 20 22 25 24 26 28 30 29 28 29 30 31 39 53 57 59 60 59 58 57 54 52 49 50 51
66 64 54 46 40 33 29 28 33 30 26 25 26 17 8 11 13 18 22 23 24 25 26 30 34 32 30 31 34 41 48 49 54 54 57 61 63 62 61 53 47 46 47
70 64 52 49 41 33 31 32 32 33 26 24 26 28 29 18 10 7 18 24 21 21 17 20 24 27 28 32 40 49 54 58 59 59 60 62 62 60 54 46 45 44 43
74 70 58 49 42 36 38 34 33 28 25 27 26 19 16 17 15 12 12 10 10 8 10 12 16 24 31 38 47 57 59 58 59 59 59 57 56 53 49 46 43 43 42
78 69 56 50 44 41 45 34 29 28 25 25 23 16 11 9 11 10 9 13 13 11 17 20 24 32 40 47 53 58 62 61 62 63 60 58 57 55 53 45 40 40 41
79 74 63 52 49 44 43 35 29 26 24 23 19 12 7 7 4 4 2 5 8 15 14 25 29 35 42 49 52 56 56 56 56 57 54 53 55 52 45 43 40 37 36
76 76 65 54 53 51 39 32 26 30 28 22 15 8 5 3 2 0 0 3 9 9 10 14 24 32 43 47 48 52 54 63 61 58 57 53 51 53 45 47 46 40 39
77 76 68 66 61 44 35 33 33 36 26 21 12 6 3 4 5 4 6 7 6 12 13 13 18 29 37 36 41 56 58 60 58 56 53 44 43 49 46 44 49 51 47
78 79 73 67 54 42 39 36 41 33 24 18 11 7 8 8 8 10 11 11 12 9 10 13 17 29 39 41 46 55 57 57 60 56 45 45 44 50 46 49 52 50 50
80 75 73 66 54 50 44 45 39 31 20 15 14 12 9 9 11 12 14 16 17 12 8 11 14 25 33 47 52 52 58 57 55 48 39 42 47 48 51 54 51 42 37
77 78 75 64 58 56 53 46 38 26 21 19 16 11 9 11 12 13 14 15 14 15 10 13 22 23 33 44 56 53 60 55 51 41 44 38 51 48 44 38 29 28 32
83 81 75 66 67 59 51 43 33 31 25 20 14 10 11 12 11 12 14 13 16 19 18 16 22 26 32 45 50 51 55 55 49 43 48 42 52 46 30 22 22 33 41
89 81 72 63 50 48 41 37 34 28 25 20 13 12 13 13 13 14 15 18 21 17 21 22 26 30 36 43 45 53 59 58 58 43 51 43 44 42 26 25 29 41 42
88 70 58 41 40 23 25 35 34 29 23 19 17 17 15 16 18 19 21 23 23 19 23 26 29 32 38 48 53 55 53 61 56 47 54 49 42 41 30 30 36 40 44
89 78 61 60 59 52 44 36 29 28 24 23 22 21 22 21 23 26 25 26 30 35 36 31 30 34 38 43 49 51 54 60 60 51 52 46 48 46 27 37 36 41 46
84 76 79 71 62 58 48 38 31 30 29 29 28 26 24 25 25 23 23 28 34 37 39 37 35 41 43 45 49 51 48 51 54 54 48 41 48 47 31 34 43 40 41
91 88 84 78 77 59 44 35 33 34 35 36 33 29 28 27 26 22 24 28 31 36 38 38 41 43 43 45 49 46 43 48 44 37 50 47 57 61 33 34 42 39 39
98 94 84 78 70 66 40 36 37 40 41 41 36 33 29 29 27 24 26 30 32 34 34 37 41 36 35 39 49 51 50 50 47 34 51 56 63 70 44 46 41 44 41
106 95 88 76 65 63 46 38 35 40 43 43 37 35 31 26 26 26 28 30 32 32 38 41 37 37 40 49 55 52 46 44 42 27 54 59 64 62 38 52 57 52 52
Wind_Direction_500mb
196 197 199 198 203 204 203 193 187 178 181 193 208 219 238 257 253 258 265 284 277 287 306 338 343 347 347 353 1 2 3 5 6 2 360 0 358 354 353 350 351 348 346
199 198 197 201 205 201 191 177 176 177 179 190 193 227 251 257 229 243 281 279 268 277 315 332 345 348 356 357 360 358 359 1 0 2 2 359 356 356 351 350 347 345 334
202 200 200 205 201 195 182 175 179 185 191 202 222 229 248 237 246 266 281 265 265 283 306 333 345 354 1 5 7 4 357 351 354 355 360 358 352 350 348 341 335 334 329
206 202 202 202 198 189 182 185 189 197 207 220 236 235 233 251 257 275 267 260 257 272 298 328 337 345 356 357 2 359 355 345 349 349 348 350 348 346 344 340 338 336 331
208 203 202 191 182 180 182 192 204 210 221 220 225 225 256 253 266 274 266 251 257 266 283 297 314 325 334 342 354 347 341 339 338 340 337 339 339 339 336 337 332 330 332
208 204 197 190 186 184 188 191 195 207 213 216 213 238 256 257 269 264 250 249 251 258 277 287 292 299 305 319 331 333 330 330 329 331 330 329 329 330 331 331 327 324 324
205 198 196 197 194 189 193 200 210 220 221 215 222 237 251 253 249 248 246 243 251 261 271 279 277 282 296 305 316 320 323 325 322 322 316 320 320 323 323 323 322 316 316
206 201 201 203 198 197 197 210 222 223 216 212 218 231 230 253 244 238 246 252 257 262 269 271 273 278 286 296 306 311 317 319 317 314 313 317 315 315 314 313 313 310 309
207 207 202 198 197 202 207 207 213 217 221 230 238 223 215 233 193 236 248 254 264 271 274 266 270 275 286 293 299 307 315 315 311 309 308 309 308 308 309 310 306 302 302
206 204 203 199 198 203 206 208 208 213 229 247 254 241 239 237 198 207 249 269 285 290 277 266 263 274 286 297 310 314 316 315 315 311 309 307 305 305 309 320 317 311 299
204 202 200 199 198 202 205 206 211 222 237 253 244 235 224 228 236 229 244 240 279 270 270 258 274 289 300 311 319 318 320 319 322 325 324 320 316 313 316 315 313 305 305
202 202 202 201 198 200 203 203 212 227 241 237 216 193 205 246 261 263 252 237 237 265 268 281 294 304 310 316 321 322 324 330 331 330 327 325 323 322 321 322 323 318 311
202 201 200 199 198 200 201 202 208 227 210 195 193 188 220 254 258 252 235 250 247 255 265 290 299 308 315 323 325 326 328 331 331 329 326 324 321 323 324 321 320 310 306
203 198 195 198 201 195 193 199 204 194 176 183 180 190 204 214 220 292 326 340 289 272 280 270 306 317 324 327 330 335 338 338 334 327 323 321 321 326 325 321 318 319 310
201 196 194 194 194 195 192 187 185 181 174 175 176 170 164 108 70 16 348 336 335 319 314 316 327 324 338 345 341 343 343 341 337 333 331 322 313 320 324 314 316 323 321
201 196 195 192 191 186 182 178 178 171 171 165 151 127 101 71 34 17 9 352 353 335 318 327 327 335 343 345 343 348 348 346 343 341 334 326 322 320 317 313 316 321 323
207 203 196 192 187 179 174 172 171 159 164 151 131 111 83 47 19 9 3 354 349 346 348 331 344 343 348 348 351 354 357 354 349 343 333 328 325 323 318 316 318 324 325
202 202 191 184 179 172 167 166 162 154 151 135 122 99 63 37 15 6 4 2 359 11 26 5 353 354 352 353 353 357 360 357 354 342 341 331 337 333 336 348 356 342 325
195 186 180 174 160 158 160 155 160 149 144 128 112 81 54 44 36 28 27 29 28 26 25 19 6 356 359 352 355 352 356 354 355 349 344 346 344 349 353 357 346 330 323
181 174 169 163 146 152 158 138 157 145 140 122 100 82 74 70 62 56 53 46 39 33 27 22 8 360 356 353 354 350 352 352 350 349 350 350 345 345 345 350 349 339 338
173 167 147 142 139 149 156 166 153 139 128 116 109 97 94 82 79 73 64 52 45 39 31 22 9 0 356 356 353 347 345 346 351 347 348 350 347 352 344 360 347 342 341
161 160 165 166 163 182 174 167 148 135 125 114 111 107 97 88 73 61 53 44 38 36 31 27 8 2 359 353 345 343 340 344 348 349 345 351 351 351 3 4 350 347 349
166 163 163 159 158 160 162 154 143 132 126 120 112 105 101 86 75 61 50 40 32 29 26 20 12 10 3 351 344 340 341 344 341 342 347 355 355 3 14 5 349 352 351
162 162 155 156 156 152 157 148 138 133 127 118 113 107 92 87 81 70 55 45 34 29 23 17 14 9 357 349 345 344 343 342 345 348 350 356 2 7 11 357 356 2 356
161 157 156 155 151 143 153 148 144 134 127 120 113 99 93 87 79 72 57 47 41 33 24 20 16 11 2 356 356 357 353 351 350 2 354 4 4 3 14 10 20 17 12
155 155 153 154 148 139 147 143 141 134 131 122 111 101 90 83 73 61 53 50 42 35 31 26 21 18 17 14 10 3 354 350 358 4 2 1 5 9 355 28 32 27 26
Wind_Speed_850mb
47 42 38 34 30 24 21 20 22 23 22 18 12 11 9 12 17 15 17 22 19 21 20 26 29 32 32 29 27 30 30 32 34 33 33 33 30 27 26 27 29 31 32
47 43 39 33 28 24 23 24 25 25 20 16 14 11 16 23 20 17 21 23 20 23 20 21 25 25 25 25 24 28 28 31 35 35 36 35 34 30 30 30 32 30 32
48 43 39 34 29 27 25 26 24 22 20 21 15 16 24 17 18 20 23 23 21 18 18 18 18 19 21 21 21 23 28 32 35 36 40 39 36 35 37 37 37 35 33
49 44 41 36 32 29 28 27 24 23 24 24 20 20 18 18 21 25 25 24 20 17 14 13 13 15 16 16 19 25 25 30 38 42 41 43 41 41 39 39 38 35 35
50 47 41 38 36 33 30 26 25 27 25 25 21 16 20 19 21 26 25 23 23 18 13 11 14 14 14 16 19 22 27 29 36 35 42 46 45 45 44 42 41 43 36
54 51 48 40 36 33 29 27 27 26 23 22 21 19 19 22 27 28 24 25 24 19 17 16 17 12 16 18 22 27 32 34 38 42 46 51 50 50 49 47 44 46 44
58 53 51 45 35 35 31 26 30 27 27 25 20 18 18 21 23 22 24 23 24 22 22 23 22 21 17 24 28 32 38 44 48 46 47 51 51 51 49 49 51 50 49
62 58 53 48 41 37 31 29 31 29 30 26 21 17 9 14 18 17 20 22 25 24 26 28 30 29 28 29 30 31 39 53 57 59 60 59 58 57 54 52 49 50 51
66 64 54 46 40 33 29 28 33 30 26 25 26 17 8 11 13 18 22 23 24 25 26 30 34 32 30 31 34 41 48 49 54 54 57 61 63 62 61 53 47 46 47
70 64 52 49 41 33 31 32 32 33 26 24 26 28 29 18 10 7 18 24 21 21 17 20 24 27 28 32 40 49 54 58 59 59 60 62 62 60 54 46 45 44 43
74 70 58 49 42 36 38 34 33 28 25 27 26 19 16 17 15 12 12 10 10 8 10 12 16 24 31 38 47 57 59 58 59 59 59 57 56 53 49 46 43 43 42
78 69 56 50 44 41 45 34 29 28 25 25 23 16 11 9 11 10 9 13 13 11 17 20 24 32 40 47 53 58 62 61 62 63 60 58 57 55 53 45 40 40 41
79 74 63 52 49 44 43 35 29 26 24 23 19 12 7 7 4 4 2 5 8 15 14 25 29 35 42 49 52 56 56 56 56 57 54 53 55 52 45 43 40 37 36
76 76 65 54 53 51 39 32 26 30 28 22 15 8 5 3 2 0 0 3 9 9 10 14 24 32 43 47 48 52 54 63 61 58 57 53 51 53 45 47 46 40 39
77 76 68 66 61 44 35 33 33 36 26 21 12 6 3 4 5 4 6 7 6 12 13 13 18 29 37 36 41 56 58 60 58 56 53 44 43 49 46 44 49 51 47
78 79 73 67 54 42 39 36 41 33 24 18 11 7 8 8 8 10 11 11 12 9 10 13 17 29 39 41 46 55 57 57 60 56 45 45 44 50 46 49 52 50 50
80 75 73 66 54 50 44 45 39 31 20 15 14 12 9 9 11 12 14 16 17 12 8 11 14 25 33 47 52 52 58 57 55 48 39 42 47 48 51 54 51 42 37
77 78 75 64 58 56 53 46 38 26 21 19 16 11 9 11 12 13 14 15 14 15 10 13 22 23 33 44 56 53 60 55 51 41 44 38 51 48 44 38 29 28 32
83 81 75 66 67 59 51 43 33 31 25 20 14 10 11 12 11 12 14 13 16 19 18 16 22 26 32 45 50 51 55 55 49 43 48 42 52 46 30 22 22 33 41
89 81 72 63 50 48 41 37 34 28 25 20 13 12 13 13 13 14 15 18 21 17 21 22 26 30 36 43 45 53 59 58 58 43 51 43 44 42 26 25 29 41 42
88 70 58 41 40 23 25 35 34 29 23 19 17 17 15 16 18 19 21 23 23 19 23 26 29 32 38 48 53 55 53 61 56 47 54 49 42 41 30 30 36 40 44
89 78 61 60 59 52 44 36 29 28 24 23 22 21 22 21 23 26 25 26 30 35 36 31 30 34 38 43 49 51 54 60 60 51 52 46 48 46 27 37 36 41 46
84 76 79 71 62 58 48 38 31 30 29 29 28 26 24 25 25 23 23 28 34 37 39 37 35 41 43 45 49 51 48 51 54 54 48 41 48 47 31 34 43 40 41
91 88 84 78 77 59 44 35 33 34 35 36 33 29 28 27 26 22 24 28 31 36 38 38 41 43 43 45 49 46 43 48 44 37 50 47 57 61 33 34 42 39 39
98 94 84 78 70 66 40 36 37 40 41 41 36 33 29 29 27 24 26 30 32 34 34 37 41 36 35 39 49 51 50 50 47 34 51 56 63 70 44 46 41 44 41
106 95 88 76 65 63 46 38 35 40 43 43 37 35 31 26 26 26 28 30 32 32 38 41 37 37 40 49 55 52 46 44 42 27 54 59 64 62 38 52 57 52 52
Wind_Direction_850mb
196 197 199 198 203 204 203 193 187 178 181 193 208 219 238 257 253 258 265 284 277 287 306 338 343 347 347 353 1 2 3 5 6 2 360 0 358 354 353 350 351 348 346
199 198 197 201 205 201 191 177 176 177 179 190 193 227 251 257 229 243 281 279 268 277 315 332 345 348 356 357 360 358 359 1 0 2 2 359 356 356 351 350 347 345 334
202 200 200 205 201 195 182 175 179 185 191 202 222 229 248 237 246 266 281 265 265 283 306 333 345 354 1 5 7 4 357 351 354 355 360 358 352 350 348 341 335 334 329
206 202 202 202 198 189 182 185 189 197 207 220 236 235 233 251 257 275 267 260 257 272 298 328 337 345 356 357 2 359 355 345 349 349 348 350 348 346 344 340 338 336 331
208 203 202 191 182 180 182 192 204 210 221 220 225 225 256 253 266 274 266 251 257 266 283 297 314 325 334 342 354 347 341 339 338 340 337 339 339 339 336 337 332 330 332
208 204 197 190 186 184 188 191 195 207 213 216 213 238 256 257 269 264 250 249 251 258 277 287 292 299 305 319 331 333 330 330 329 331 330 329 329 330 331 331 327 324 324
205 198 196 197 194 189 193 200 210 220 221 215 222 237 251 253 249 248 246 243 251 261 271 279 277 282 296 305 316 320 323 325 322 322 316 320 320 323 323 323 322 316 316
206 201 201 203 198 197 197 210 222 223 216 212 218 231 230 253 244 238 246 252 257 262 269 271 273 278 286 296 306 311 317 319 317 314 313 317 315 315 314 313 313 310 309
207 207 202 198 197 202 207 207 213 217 221 230 238 223 215 233 193 236 248 254 264 271 274 266 270 275 286 293 299 307 315 315 311 309 308 309 308 308 309 310 306 302 302
206 204 203 199 198 203 206 208 208 213 229 247 254 241 239 237 198 207 249 269 285 290 277 266 263 274 286 297 310 314 316 315 315 311 309 307 305 305 309 320 317 311 299
204 202 200 199 198 202 205 206 211 222 237 253 244 235 224 228 236 229 244 240 279 270 270 258 274 289 300 311 319 318 320 319 322 325 324 320 316 313 316 315 313 305 305
202 202 202 201 198 200 203 203 212 227 241 237 216 193 205 246 261 263 252 237 237 265 268 281 294 304 310 316 321 322 324 330 331 330 327 325 323 322 321 322 323 318 311
202 201 200 199 198 200 201 202 208 227 210 195 193 188 220 254 258 252 235 250 247 255 265 290 299 308 315 323 325 326 328 331 331 329 326 324 321 323 324 321 320 310 306
203 198 195 198 201 195 193 199 204 194 176 183 180 190 204 214 220 292 326 340 289 272 280 270 306 317 324 327 330 335 338 338 334 327 323 321 321 326 325 321 318 319 310
201 196 194 194 194 195 192 187 185 181 174 175 176 170 164 108 70 16 348 336 335 319 314 316 327 324 338 345 341 343 343 341 337 333 331 322 313 320 324 314 316 323 321
201 196 195 192 191 186 182 178 178 171 171 165 151 127 101 71 34 17 9 352 353 335 318 327 327 335 343 345 343 348 348 346 343 341 334 326 322 320 317 313 316 321 323
207 203 196 192 187 179 174 172 171 159 164 151 131 111 83 47 19 9 3 354 349 346 348 331 344 343 348 348 351 354 357 354 349 343 333 328 325 323 318 316 318 324 325
202 202 191 184 179 172 167 166 162 154 151 135 122 99 63 37 15 6 4 2 359 11 26 5 353 354 352 353 353 357 360 357 354 342 341 331 337 333 336 348 356 342 325
195 186 180 174 160 158 160 155 160 149 144 128 112 81 54 44 36 28 27 29 28 26 25 19 6 356 359 352 355 352 356 354 355 349 344 346 344 349 353 357 346 330 323
181 174 169 163 146 152 158 138 157 145 140 122 100 82 74 70 62 56 53 46 39 33 27 22 8 360 356 353 354 350 352 352 350 349 350 350 345 345 345 350 349 339 338
173 167 147 142 139 149 156 166 153 139 128 116 109 97 94 82 79 73 64 52 45 39 31 22 9 0 356 356 353 347 345 346 351 347 348 350 347 352 344 360 347 342 341
161 160 165 166 163 182 174 167 148 135 125 114 111 107 97 88 73 61 53 44 38 36 31 27 8 2 359 353 345 343 340 344 348 349 345 351 351 351 3 4 350 347 349
166 163 163 159 158 160 162 154 143 132 126 120 112 105 101 86 75 61 50 40 32 29 26 20 12 10 3 351 344 340 341 344 341 342 347 355 355 3 14 5 349 352 351
162 162 155 156 156 152 157 148 138 133 127 118 113 107 92 87 81 70 55 45 34 29 23 17 14 9 357 349 345 344 343 342 345 348 350 356 2 7 11 357 356 2 356
161 157 156 155 151 143 153 148 144 134 127 120 113 99 93 87 79 72 57 47 41 33 24 20 16 11 2 356 356 357 353 351 350 2 354 4 4 3 14 10 20 17 12
155 155 153 154 148 139 147 143 141 134 131 122 111 101 90 83 73 61 53 50 42 35 31 26 21 18 17 14 10 3 354 350 358 4 2 1 5 9 355 28 32 27 26